Weather History for KVYS - January, 2015

Change the Weather History Date:

Monday, January 12, 2015

  Actual Average Record
Temperature  
Mean Temperature 18 °F -  
Max Temperature 29 °F 28 °F 59 °F (2005)
Min Temperature 8 °F 10 °F -24 °F (1974)
Degree Days  
Heating Degree Days 46    
Moisture  
Dew Point 10 °F    
Average Humidity 74    
Maximum Humidity 99    
Minimum Humidity 59    
Precipitation  
Precipitation 0.01 in - - ()
Sea Level Pressure  
Sea Level Pressure 30.50 in    
Wind  
Wind Speed 8 mph (North)    
Max Wind Speed 18 mph    
Max Gust Speed 20 mph    
Visibility 9 miles    
Events Rain    
Averages and records for this station are not official NWS values.
T = Trace of Precipitation, MM = Missing Value Source: NWS Daily Summary

Daily Weather History Graph

Daily Weather History Graph

Search for Another Location

Airport or City:

Trip Planner

Search our weather history database for the weather conditions in past years. The results will help you decide how hot, cold, wet, or windy it might be!

Date:

Astronomy

Jan. 12, 2015 Rise Set
Actual Time 7:21 AM CST 4:48 PM CST
Civil Twilight 6:50 AM CST 5:19 PM CST
Nautical Twilight 6:16 AM CST 5:53 PM CST
Astronomical Twilight 5:43 AM CST 6:26 PM CST
Moon No Moon Rise 11:01 AM CST (1/12)
Length of Visible Light 10h 28m
Length of Day
9h 27m
Waning Gibbous, 56% of the Moon is Illuminated
Jan 12
Waning Gibbous
Jan 13
Last Quarter
Jan 20
New
Jan 26
First Quarter
Feb 3
Full

Hourly Weather History & Observations

Time (CST) Temp. Windchill Dew Point Humidity Pressure Visibility Wind Dir Wind Speed Gust Speed Precip Events Conditions
12:15 AM 28.9 °F - 28.4 °F 98% 30.25 in 1.8 mi Calm Calm - N/A   Overcast
12:35 AM 28.4 °F - 28.0 °F 99% 30.25 in 3.0 mi Calm Calm - 0.01 in Rain Light Freezing Rain
12:55 AM 28.6 °F - 28.2 °F 99% 30.26 in 4.0 mi Calm Calm - 0.01 in   Overcast
1:15 AM 29.1 °F 25.4 °F 28.4 °F 97% 30.27 in 5.0 mi WNW 3.5 mph - N/A   Overcast
1:35 AM 28.9 °F 23.9 °F 28.4 °F 98% 30.27 in 5.0 mi NW 4.6 mph - N/A   Overcast
1:55 AM 28.9 °F 22.8 °F 28.4 °F 98% 30.28 in 5.0 mi NW 5.8 mph - N/A   Overcast
2:15 AM 28.4 °F 21.2 °F 27.9 °F 98% 30.28 in 5.0 mi NW 6.9 mph - N/A   Mostly Cloudy
2:35 AM 28.2 °F 21.0 °F 27.5 °F 97% 30.28 in 5.0 mi NNW 6.9 mph - N/A   Scattered Clouds
2:55 AM 27.1 °F 19.7 °F 26.4 °F 97% 30.29 in 5.0 mi NW 6.9 mph - N/A   Scattered Clouds
3:15 AM 28.0 °F 20.8 °F 27.3 °F 97% 30.30 in 5.0 mi NNW 6.9 mph - N/A   Mostly Cloudy
3:35 AM 28.4 °F 19.7 °F 27.5 °F 96% 30.31 in 5.0 mi NNW 9.2 mph - N/A   Overcast
3:55 AM 27.1 °F 16.9 °F 23.7 °F 87% 30.31 in 10.0 mi North 11.5 mph - N/A   Overcast
4:15 AM 26.1 °F 15.6 °F 21.4 °F 82% 30.31 in 10.0 mi North 11.5 mph - N/A   Mostly Cloudy
4:35 AM 25.2 °F 12.9 °F 19.8 °F 80% 30.32 in 10.0 mi North 15.0 mph - N/A   Clear
4:50 AM 24.6 °F 12.7 °F 19.4 °F 81% 30.32 in 10.0 mi North 13.8 mph - N/A   Scattered Clouds
5:15 AM 23.4 °F 11.1 °F 17.4 °F 78% 30.33 in 10.0 mi North 13.8 mph - N/A   Clear
5:30 AM 23.0 °F 11.7 °F 17.1 °F 78% 30.35 in 10.0 mi North 11.5 mph - N/A   Scattered Clouds
5:55 AM 22.1 °F 10.0 °F 15.6 °F 76% 30.36 in 10.0 mi North 12.7 mph - N/A   Scattered Clouds
6:15 AM 21.2 °F 8.9 °F 13.1 °F 71% 30.37 in 10.0 mi North 12.7 mph - N/A   Clear
6:35 AM 21.2 °F 8.3 °F 13.1 °F 71% 30.38 in 10.0 mi North 13.8 mph 17.3 mph N/A   Clear
6:55 AM 20.3 °F 8.3 °F 12.7 °F 73% 30.39 in 10.0 mi North 11.5 mph - N/A   Clear
7:15 AM 19.4 °F 6.6 °F 12.0 °F 73% 30.40 in 10.0 mi North 12.7 mph - N/A   Scattered Clouds
7:35 AM 18.7 °F 5.1 °F 12.0 °F 75% 30.40 in 10.0 mi North 13.8 mph - N/A   Scattered Clouds
7:55 AM 18.5 °F 6.1 °F 11.3 °F 73% 30.41 in 10.0 mi North 11.5 mph - N/A   Clear
8:15 AM 19.4 °F 8.6 °F 12.2 °F 74% 30.43 in 10.0 mi North 9.2 mph - N/A   Scattered Clouds
8:35 AM 19.4 °F 7.9 °F 12.2 °F 74% 30.45 in 10.0 mi North 10.4 mph - N/A   Scattered Clouds
8:55 AM 19.4 °F 6.0 °F 10.8 °F 69% 30.46 in 10.0 mi North 13.8 mph 19.6 mph N/A   Clear
9:15 AM 19.4 °F 6.6 °F 10.9 °F 70% 30.48 in 10.0 mi North 12.7 mph 19.6 mph N/A   Clear
9:35 AM 18.5 °F 5.5 °F 9.7 °F 68% 30.49 in 10.0 mi North 12.7 mph - N/A   Clear
9:55 AM 17.6 °F 2.7 °F 8.6 °F 68% 30.50 in 5.0 mi North 16.1 mph - N/A   Haze
10:15 AM 17.4 °F 2.9 °F 7.2 °F 64% 30.52 in 7.0 mi North 15.0 mph - N/A   Clear
10:35 AM 16.7 °F 1.5 °F 6.3 °F 64% 30.53 in 10.0 mi North 16.1 mph - N/A   Clear
10:55 AM 16.7 °F 0.5 °F 6.3 °F 64% 30.53 in 10.0 mi North 18.4 mph - N/A   Clear
11:15 AM 16.7 °F 2.6 °F 6.3 °F 64% 30.53 in 10.0 mi North 13.8 mph - N/A   Clear
11:35 AM 16.7 °F 2.6 °F 6.4 °F 64% 30.53 in 10.0 mi North 13.8 mph - N/A   Clear
11:55 AM 16.7 °F 2.0 °F 5.9 °F 63% 30.53 in 10.0 mi North 15.0 mph - N/A   Clear
12:15 PM 16.7 °F 1.5 °F 5.7 °F 62% 30.53 in 10.0 mi North 16.1 mph - N/A   Clear
12:35 PM 17.1 °F 3.6 °F 5.9 °F 62% 30.54 in 10.0 mi North 12.7 mph 18.4 mph N/A   Clear
12:55 PM 17.1 °F 3.0 °F 5.4 °F 60% 30.54 in 10.0 mi North 13.8 mph 19.6 mph N/A   Clear
1:15 PM 17.6 °F 2.7 °F 6.1 °F 61% 30.54 in 10.0 mi North 16.1 mph - N/A   Clear
1:35 PM 17.6 °F 3.7 °F 5.9 °F 60% 30.54 in 10.0 mi North 13.8 mph 18.4 mph N/A   Clear
1:55 PM 17.6 °F 5.0 °F 5.5 °F 59% 30.55 in 10.0 mi North 11.5 mph - N/A   Clear
2:15 PM 17.6 °F 5.7 °F 5.7 °F 60% 30.55 in 10.0 mi North 10.4 mph - N/A   Clear
2:30 PM 17.6 °F 5.0 °F 5.9 °F 60% 30.56 in 10.0 mi North 11.5 mph - N/A   Clear
2:55 PM 17.4 °F 5.4 °F 6.1 °F 61% 30.57 in 10.0 mi North 10.4 mph - N/A   Clear
3:10 PM 16.7 °F 4.5 °F 5.9 °F 63% 30.58 in 10.0 mi North 10.4 mph - N/A   Clear
3:35 PM 16.3 °F 4.9 °F 5.9 °F 64% 30.59 in 10.0 mi North 9.2 mph - N/A   Clear
3:50 PM 15.8 °F 4.2 °F 5.5 °F 64% 30.59 in 10.0 mi North 9.2 mph - N/A   Clear
4:15 PM 14.9 °F 6.1 °F 5.4 °F 66% 30.60 in 10.0 mi North 5.8 mph - N/A   Clear
4:35 PM 14.4 °F 4.3 °F 5.7 °F 69% 30.61 in 10.0 mi North 6.9 mph - N/A   Clear
4:55 PM 12.7 °F 0.4 °F 4.6 °F 70% 30.62 in 10.0 mi North 9.2 mph - N/A   Clear
5:15 PM 12.6 °F -2.0 °F 3.7 °F 68% 30.63 in 10.0 mi North 12.7 mph - N/A   Clear
5:35 PM 11.8 °F -0.7 °F 3.2 °F 68% 30.64 in 10.0 mi North 9.2 mph - N/A   Clear
5:55 PM 11.1 °F -0.6 °F 3.0 °F 70% 30.65 in 10.0 mi North 8.1 mph - N/A   Clear
6:15 PM 10.4 °F -1.5 °F 3.2 °F 73% 30.65 in 10.0 mi North 8.1 mph - N/A   Clear
6:35 PM 9.5 °F -2.6 °F 2.1 °F 72% 30.67 in 10.0 mi North 8.1 mph - N/A   Clear
6:55 PM 9.3 °F -2.8 °F 2.1 °F 73% 30.68 in 10.0 mi North 8.1 mph - N/A   Clear
7:15 PM 8.1 °F -4.3 °F 0.9 °F 72% 30.68 in 10.0 mi North 8.1 mph - N/A   Clear
7:35 PM 8.1 °F -5.3 °F 1.4 °F 74% 30.68 in 10.0 mi North 9.2 mph - N/A   Clear
7:55 PM 8.4 °F -5.7 °F 1.8 °F 74% 30.69 in 10.0 mi North 10.4 mph - N/A   Clear
8:15 PM 8.6 °F -6.3 °F 1.6 °F 73% 30.69 in 10.0 mi North 11.5 mph - N/A   Clear
8:35 PM 8.2 °F -6.0 °F 1.2 °F 73% 30.69 in 10.0 mi North 10.4 mph - N/A   Clear
8:55 PM 8.1 °F -5.3 °F 1.2 °F 74% 30.69 in 10.0 mi North 9.2 mph - N/A   Clear
9:15 PM 8.1 °F -5.3 °F 1.2 °F 74% 30.69 in 10.0 mi North 9.2 mph - N/A   Clear
9:30 PM 8.1 °F -4.3 °F 1.4 °F 74% 30.69 in 10.0 mi North 8.1 mph - N/A   Clear
9:55 PM 8.1 °F -6.2 °F 1.0 °F 73% 30.68 in 10.0 mi North 10.4 mph - N/A   Clear
10:10 PM 8.2 °F -4.1 °F 1.2 °F 73% 30.68 in 10.0 mi North 8.1 mph - N/A   Clear
10:35 PM 8.2 °F -6.0 °F 1.4 °F 74% 30.68 in 10.0 mi North 10.4 mph - N/A   Clear
10:55 PM 9.0 °F -5.1 °F 2.3 °F 74% 30.68 in 10.0 mi North 10.4 mph - N/A   Clear
11:15 PM 9.1 °F -4.9 °F 2.3 °F 74% 30.68 in 10.0 mi North 10.4 mph - N/A   Clear
11:35 PM 9.3 °F -3.8 °F 2.3 °F 73% 30.68 in 10.0 mi North 9.2 mph - N/A   Scattered Clouds
11:55 PM 8.6 °F -4.7 °F 2.3 °F 76% 30.67 in 10.0 mi North 9.2 mph - N/A   Scattered Clouds